Snowfall_Accumulation
3.2 3.4 3.6 3.8 4.0 4.1 5.0 4.6 4.9 4.3 4.6 5.1 5.0 5.1 5.2 5.3 5.6 6.0 6.0 5.9 6.3 6.2 7.3 7.9 8.1 7.6 7.0 6.6 7.5 7.3 6.8 7.0 7.1 7.1 7.6 8.0 8.7 10.2 9.6 11.2 15.0 16.1 11.3 4.8 2.9 2.8 3.2 2.8 2.2 2.9 2.4 3.5 3.7 3.6 3.0 2.2 2.4 2.7 3.0 3.4 3.8 4.1 3.6
3.5 3.7 3.7 4.0 4.1 4.1 4.3 5.1 5.4 5.2 5.5 5.8 5.5 5.6 5.4 6.1 6.9 6.8 6.9 6.6 7.1 6.5 6.8 7.5 8.4 8.1 7.7 7.5 8.9 8.7 8.7 8.3 8.0 8.2 8.5 8.2 8.8 9.8 9.8 8.9 13.0 13.8 11.7 9.5 4.4 3.9 2.7 3.3 2.2 3.4 2.3 3.5 3.7 4.3 3.8 3.8 3.3 3.0 3.0 3.2 3.2 3.7 3.9
3.7 3.8 3.8 3.9 3.7 3.7 4.1 4.2 4.6 4.4 5.4 6.0 6.1 6.1 5.9 5.9 6.4 6.8 7.1 7.1 7.1 6.9 6.8 7.9 8.4 8.6 8.1 7.9 9.6 9.5 9.5 9.0 9.5 9.0 9.3 9.3 8.3 9.3 8.8 8.6 9.9 12.9 13.6 10.2 7.7 4.6 4.5 4.1 3.4 3.6 3.5 2.9 3.3 3.6 3.3 4.5 4.7 4.3 4.0 3.7 3.6 3.9 3.9
3.9 4.1 4.1 4.3 4.4 4.8 4.3 4.3 4.1 4.2 4.7 5.0 5.0 5.7 6.1 5.7 5.7 6.1 6.7 7.2 7.2 7.2 7.8 8.6 9.2 9.2 8.8 9.2 10.4 10.4 10.3 10.5 10.7 11.0 10.8 10.3 9.2 9.0 8.9 8.1 8.4 9.4 11.9 10.5 10.0 6.4 5.7 4.7 4.5 3.9 3.1 3.1 3.2 4.2 4.9 4.7 4.9 4.5 4.8 4.3 4.2 4.2 4.6
4.6 4.9 5.1 5.1 4.9 4.7 4.6 4.6 4.5 4.7 4.8 4.6 4.6 5.0 5.3 5.7 6.1 6.3 6.6 6.8 7.1 7.7 8.3 8.7 9.1 8.7 8.7 9.4 11.2 10.8 11.1 11.1 12.0 12.3 12.5 12.9 11.6 11.4 10.5 9.7 9.5 10.0 9.9 12.1 11.6 8.4 5.3 4.7 4.7 4.3 4.2 3.9 5.1 5.2 5.5 5.3 5.6 5.6 6.0 5.4 4.9 4.6 4.7
5.7 5.6 5.3 5.1 5.0 5.0 5.3 4.9 5.1 5.2 5.8 5.1 4.7 4.7 4.8 5.0 5.1 5.2 5.6 6.0 6.3 6.6 7.2 8.0 8.1 8.0 8.3 9.0 10.4 10.8 10.3 11.3 12.7 12.7 13.1 13.6 13.6 13.6 12.9 13.2 12.8 11.9 12.6 13.0 12.4 9.8 8.2 5.2 5.7 5.7 5.6 5.2 5.6 6.1 6.5 7.1 6.9 6.0 6.5 7.1 7.6 6.7 6.0
6.2 6.0 5.9 5.8 5.6 5.6 5.5 5.3 5.2 5.4 5.5 5.4 5.3 5.5 5.6 5.7 5.6 5.5 5.4 5.5 5.4 5.2 5.5 6.1 6.5 6.9 7.2 8.3 8.9 9.7 9.8 10.1 10.3 11.5 12.6 12.8 13.3 12.9 14.4 16.4 16.5 15.5 15.4 15.2 14.8 12.6 9.5 8.2 6.1 5.8 7.2 5.5 5.2 5.7 5.9 7.4 8.5 9.3 7.7 7.5 7.6 8.0 6.9
6.4 5.8 5.6 5.8 5.8 5.5 5.3 5.4 5.4 5.4 5.8 5.8 5.8 6.1 6.4 6.2 7.0 7.0 6.4 5.6 5.1 5.0 5.4 5.3 5.3 5.5 5.5 5.8 6.2 7.0 7.3 8.0 9.8 10.2 11.9 10.9 11.6 13.0 15.3 17.0 16.3 16.3 16.6 17.2 16.5 14.8 12.4 9.2 8.0 6.5 5.8 5.7 6.2 7.6 7.5 6.8 7.8 9.7 9.2 9.0 8.3 8.0 8.6
6.3 6.2 6.2 5.6 5.5 5.7 5.2 5.6 5.5 5.5 6.8 7.0 6.9 7.5 9.1 9.1 9.3 8.7 8.3 7.7 7.1 6.2 5.7 5.5 5.3 5.0 5.3 4.8 4.6 4.8 5.4 6.3 7.5 9.7 11.9 11.1 11.1 13.3 15.3 16.8 16.9 17.5 17.8 17.7 16.7 15.6 11.4 10.9 9.5 8.1 7.5 7.6 8.3 9.7 10.2 7.5 6.9 8.3 7.2 7.2 8.0 8.6 8.1
6.5 6.9 8.1 6.5 6.1 5.9 6.2 5.9 5.6 5.6 7.6 7.5 11.1 13.8 14.8 15.1 14.6 13.9 13.5 12.9 11.6 9.7 8.1 7.2 6.4 5.5 4.5 4.4 4.6 5.1 5.7 6.7 7.6 8.2 9.8 12.0 12.6 14.0 16.2 17.5 18.4 18.0 16.8 17.0 18.5 16.3 13.2 13.3 11.5 9.0 7.8 7.6 7.0 6.3 5.9 6.8 7.6 9.0 7.6 6.6 7.7 8.0 9.1
8.1 7.7 7.4 7.1 7.1 7.4 7.1 6.8 6.0 5.9 8.6 12.5 15.9 18.7 20.8 20.5 18.5 15.9 14.6 13.4 12.5 11.4 8.8 7.3 6.3 5.8 5.2 5.1 5.2 5.5 5.8 6.6 7.1 8.3 9.2 9.7 10.7 12.8 17.1 21.6 23.0 20.9 17.7 18.5 18.1 14.5 12.9 12.6 11.1 8.3 7.4 7.4 6.9 6.2 7.2 7.7 7.7 9.1 8.8 10.2 10.8 12.0 9.3
9.5 8.1 7.6 7.7 7.8 8.2 7.8 7.8 6.5 7.2 12.6 15.1 19.7 25.3 26.3 24.1 21.8 18.8 16.4 14.4 13.4 11.9 10.5 9.2 8.0 7.1 6.3 6.2 6.0 6.3 6.7 7.4 7.7 8.3 8.7 9.4 10.8 12.1 14.4 17.8 19.2 21.7 21.4 19.1 19.3 18.1 14.9 13.1 11.4 8.4 7.1 7.1 7.3 8.3 8.1 8.2 9.3 10.5 11.5 11.9 11.8 10.6 10.1
9.1 8.9 8.9 9.0 9.9 9.3 8.6 8.6 7.2 8.7 13.3 16.6 22.5 27.7 31.1 26.8 23.0 20.3 16.9 14.2 12.7 11.5 10.4 9.5 9.8 9.0 8.0 6.8 5.7 6.3 6.6 7.1 7.3 7.0 7.6 8.5 9.2 9.7 11.8 16.1 21.3 20.5 18.5 20.6 22.0 21.9 17.7 12.9 11.5 11.2 8.2 6.6 7.6 8.5 11.1 10.3 12.0 11.9 11.9 12.1 12.1 10.3 8.1
10.2 9.9 10.5 10.9 11.3 10.9 10.4 9.8 8.5 9.3 14.7 20.6 24.7 29.9 35.2 29.4 25.2 20.8 17.4 14.5 12.4 10.9 9.8 9.2 9.3 9.7 8.9 7.3 6.6 6.7 7.0 7.2 7.9 8.0 8.4 9.4 10.1 10.4 9.7 10.8 11.5 11.6 11.5 14.1 18.6 21.4 21.3 12.6 10.6 10.3 8.5 8.9 8.2 11.5 15.2 15.9 16.2 13.9 14.7 14.2 13.7 9.5 8.8
11.5 11.6 11.9 12.1 13.2 13.1 12.8 11.0 9.3 12.3 18.2 22.1 26.1 30.6 37.4 31.8 25.8 20.4 16.4 13.2 11.5 10.8 10.1 9.1 8.8 8.7 8.4 7.6 7.5 7.3 7.2 8.0 8.9 9.5 10.7 10.4 9.8 8.8 7.9 7.1 6.9 8.0 10.3 11.9 11.8 14.4 15.5 13.3 10.7 9.6 8.9 8.9 10.7 14.6 16.2 16.3 17.0 15.8 16.1 15.6 13.1 12.8 11.1
10.3 10.9 11.0 10.7 11.4 12.4 12.3 9.9 9.2 13.5 18.3 20.8 26.1 33.3 33.3 31.7 25.5 20.6 16.2 13.0 10.8 9.9 8.8 8.2 8.7 9.6 9.6 8.6 8.0 7.2 10.3 9.7 10.7 13.4 14.4 13.3 10.5 8.6 7.1 6.5 5.4 7.7 9.7 9.3 12.3 13.9 13.8 13.5 13.3 16.2 17.3 17.5 18.6 19.8 19.3 18.6 18.4 18.5 20.3 22.2 22.9 19.2 11.0
8.5 8.7 9.7 9.9 10.1 10.6 9.9 9.2 8.9 10.9 16.4 18.8 24.3 35.5 38.6 34.3 26.7 20.7 16.6 12.7 10.6 9.6 8.8 8.1 8.2 8.8 9.6 9.0 8.3 7.7 11.8 14.7 17.0 20.5 20.5 18.5 15.3 11.7 10.0 8.1 5.3 8.1 15.5 23.0 29.0 33.7 30.4 29.4 30.9 34.1 39.0 40.0 39.9 33.8 31.9 32.6 34.8 30.5 20.5 22.3 24.0 16.6 10.5
8.5 8.4 8.8 9.6 9.7 9.6 10.1 9.2 8.1 9.6 13.8 17.4 22.6 32.3 36.4 34.5 30.3 23.4 17.9 14.7 12.0 10.7 10.0 8.2 8.2 8.3 9.3 9.6 8.5 10.4 14.1 19.6 21.7 28.8 26.7 24.2 21.4 17.6 14.2 9.2 5.4 4.5 5.1 11.6 19.0 23.8 25.6 28.8 26.1 25.0 25.6 28.6 28.4 27.2 21.8 31.5 39.2 24.8 16.5 19.5 17.4 17.1 9.8
8.6 8.3 8.3 8.4 8.6 8.4 9.6 9.4 8.2 8.2 12.2 15.7 23.3 29.4 33.4 33.3 29.6 26.1 20.0 16.5 14.4 11.2 9.5 8.2 7.3 8.2 10.0 10.0 10.4 16.0 19.9 28.0 25.3 30.1 27.8 22.7 21.6 21.5 17.9 11.2 7.2 6.1 6.1 6.1 7.6 8.9 10.0 12.0 14.4 13.6 14.0 12.8 13.9 15.9 18.9 20.7 23.7 20.1 19.9 22.2 17.6 14.7 12.9
7.4 7.7 7.6 7.5 8.7 9.2 9.1 9.3 8.7 8.6 9.5 17.3 24.8 26.4 29.0 31.0 30.2 28.2 22.9 19.1 16.3 15.5 13.0 10.2 9.0 7.9 8.6 13.4 19.2 19.8 25.7 27.6 35.4 33.2 33.4 27.9 27.9 25.5 18.6 9.9 7.9 7.9 8.4 8.5 8.2 7.7 6.7 7.9 8.1 10.0 11.9 11.9 11.1 10.5 11.8 14.9 14.4 15.6 17.4 19.3 18.2 15.1 14.0
7.2 7.9 8.2 7.8 8.1 9.0 9.2 9.1 9.1 8.2 9.8 18.0 21.5 20.8 29.5 30.9 27.2 22.4 20.5 20.1 19.1 15.8 13.5 11.4 9.5 8.4 7.3 9.1 14.2 18.9 25.1 28.0 35.8 39.0 34.3 32.5 29.9 22.6 16.1 13.3 16.0 13.3 10.2 11.4 10.4 9.1 8.1 7.6 7.9 9.2 11.2 12.6 11.7 10.9 10.6 12.0 10.3 10.7 10.5 13.8 16.8 17.0 15.6
8.2 8.3 7.6 7.1 7.5 8.6 9.0 8.4 8.1 9.0 9.8 15.2 19.7 21.3 24.5 27.3 25.7 20.1 22.1 24.3 19.3 14.3 11.7 9.3 8.2 8.4 7.7 8.4 12.9 20.6 29.1 33.5 37.7 40.6 31.9 29.2 31.2 31.4 27.2 19.1 16.7 14.7 13.7 12.5 11.5 10.7 10.1 9.2 8.8 9.2 9.6 11.8 12.4 11.6 10.9 10.7 10.1 9.1 8.3 7.5 8.2 10.9 13.7
8.8 8.6 8.2 8.0 8.2 8.4 8.5 8.4 8.3 9.4 9.6 11.5 16.1 18.7 21.6 25.0 27.9 25.0 21.2 22.2 21.0 15.6 11.6 9.1 8.6 7.9 8.2 11.0 20.7 27.5 33.6 34.1 34.8 31.2 31.1 31.2 28.7 27.6 23.8 22.5 23.7 21.2 19.3 16.4 13.8 12.5 12.9 10.5 8.5 8.9 8.6 8.5 10.7 10.7 9.5 10.2 9.8 9.6 9.2 9.4 8.1 7.3 7.7
9.4 9.0 9.4 9.6 9.3 8.7 8.3 8.4 9.1 9.0 8.6 9.6 12.3 17.2 22.1 22.5 25.8 25.5 22.3 20.0 18.3 14.6 12.8 11.5 10.5 11.7 14.5 21.9 23.4 25.7 29.1 31.0 27.6 27.2 30.1 29.5 25.9 20.0 20.0 23.9 26.7 26.5 24.9 20.8 17.6 15.8 13.1 10.4 7.4 7.0 7.0 7.6 7.2 9.4 10.8 10.8 11.1 10.3 10.0 10.1 9.4 7.9 7.3
9.1 10.0 9.9 9.7 9.6 9.5 9.3 9.3 9.8 9.3 9.0 9.1 9.9 12.3 15.1 17.7 20.3 19.3 17.5 17.8 15.0 13.4 13.2 12.1 13.5 16.5 18.7 20.4 22.1 22.9 21.4 20.9 18.9 19.0 22.6 20.5 20.8 20.9 21.4 23.7 23.0 21.7 21.7 24.9 23.0 17.0 12.0 8.3 6.4 5.7 5.8 6.0 7.6 9.4 12.1 14.0 14.1 13.4 11.7 11.0 10.3 9.7 7.9
10.7 10.4 10.0 10.3 9.7 10.3 10.8 11.3 10.4 9.6 9.7 10.0 10.4 11.0 11.4 13.1 13.4 13.7 13.3 14.7 13.7 10.7 9.5 10.0 13.1 10.9 11.2 12.2 13.2 15.5 18.3 22.2 17.2 14.5 14.0 15.3 17.3 19.8 21.9 21.6 19.7 17.6 18.2 18.8 15.3 13.7 12.2 9.0 6.7 7.0 7.5 7.7 9.1 11.4 13.1 14.1 15.5 16.2 15.4 13.5 13.8 13.4 12.4
11.8 12.3 12.4 12.7 11.8 12.1 12.2 12.0 10.3 10.0 10.5 12.0 13.6 13.8 13.0 12.8 13.1 12.8 12.0 13.0 14.1 12.3 10.6 9.5 10.1 10.7 11.2 11.7 11.6 13.7 15.4 14.7 12.4 13.0 16.0 15.1 14.7 18.7 20.1 22.5 16.8 14.4 14.7 13.3 12.1 11.7 10.2 9.4 9.8 9.8 12.1 13.2 12.4 12.4 11.1 10.7 12.2 14.8 15.0 12.9 12.9 13.3 13.5
17.5 18.4 18.6 19.4 17.3 16.8 14.7 12.8 11.2 10.8 12.9 17.3 17.9 17.2 15.3 14.7 15.0 16.0 16.0 13.8 13.5 13.4 12.4 12.8 11.9 12.1 12.3 13.7 14.8 15.2 15.6 15.4 14.9 13.6 12.7 12.7 13.9 15.5 16.6 17.5 16.2 15.3 16.3 15.2 14.3 14.5 13.2 14.1 14.1 15.8 14.2 12.3 11.9 10.4 9.3 9.7 11.7 12.4 14.4 15.1 15.3 19.5 17.8
27.7 25.3 25.2 23.1 22.4 23.5 22.0 18.0 17.0 14.6 15.0 19.5 19.7 21.0 21.8 22.0 20.1 18.4 18.3 15.0 14.7 17.4 16.9 15.2 14.8 14.1 13.1 12.5 12.4 13.0 13.4 13.0 12.8 12.4 12.4 13.9 14.4 14.0 14.5 15.1 17.4 19.0 16.3 13.7 14.9 16.9 16.5 16.1 15.4 14.4 12.6 13.1 13.4 11.7 10.1 9.9 12.3 12.6 13.5 15.2 18.4 21.3 16.2
32.7 31.3 30.2 29.2 22.6 21.3 26.6 25.7 20.1 16.7 22.6 25.2 25.8 28.6 24.9 23.4 24.9 22.2 20.3 17.4 16.3 16.7 18.4 16.2 14.1 12.3 11.6 10.9 10.7 11.1 10.9 10.8 11.0 11.5 11.9 12.7 13.4 13.7 14.4 14.9 15.6 16.0 14.9 13.5 14.5 14.8 15.9 15.4 14.6 13.6 12.7 13.1 13.0 11.9 10.7 10.2 12.4 14.1 14.2 17.9 20.6 20.9 17.2
28.5 30.0 25.6 26.3 30.1 24.3 17.7 16.4 15.6 15.9 22.7 26.2 30.6 30.3 27.1 28.2 25.3 24.6 23.5 20.1 20.6 20.2 17.9 15.4 13.2 11.4 10.1 9.7 9.6 10.1 9.8 10.0 10.8 10.9 11.1 11.6 12.1 12.6 13.3 13.8 14.0 14.9 14.4 14.1 14.3 14.6 15.3 14.5 14.4 13.4 11.5 11.7 10.3 10.3 11.0 12.3 13.6 13.8 15.7 17.3 16.4 17.1 14.5
24.1 25.9 28.5 25.3 26.1 29.2 26.3 20.1 18.3 18.8 26.3 29.9 33.1 33.6 28.9 27.9 28.4 26.6 23.7 20.2 20.1 22.5 18.2 14.0 12.1 11.2 10.3 9.5 10.1 9.4 9.0 10.0 11.3 11.6 11.8 11.5 10.8 9.9 9.8 10.9 12.2 13.0 13.7 13.9 14.1 13.9 14.4 15.0 14.9 13.9 12.4 11.2 10.5 10.6 11.1 12.2 14.2 15.9 18.4 17.2 15.9 15.1 13.0
16.0 18.1 20.8 21.9 24.8 26.7 28.1 24.6 23.2 23.0 26.9 28.9 30.4 28.8 24.0 23.2 22.7 19.6 18.4 16.7 17.7 17.6 15.3 12.6 11.7 11.6 10.6 10.5 10.5 9.7 10.2 10.7 11.5 10.8 10.4 10.1 10.3 9.3 8.0 8.2 8.7 10.2 12.1 12.9 12.8 12.9 13.1 14.4 13.6 14.3 14.1 13.8 12.3 12.4 12.4 10.7 11.3 11.2 12.2 14.0 16.2 14.7 13.2
12.8 12.9 13.6 13.8 15.5 17.8 19.5 18.3 18.3 18.1 17.9 19.8 21.9 21.3 21.6 22.9 20.0 16.1 17.1 16.9 17.7 15.8 14.6 11.9 11.6 10.9 10.9 10.8 11.0 11.2 11.4 11.5 11.3 9.9 9.3 8.5 7.9 7.8 7.4 6.8 7.1 8.6 9.7 10.2 10.6 11.5 11.1 11.8 12.4 13.7 15.0 15.5 13.9 12.6 11.8 12.3 11.1 10.7 13.0 14.3 13.6 12.6 11.6
13.1 12.0 12.5 14.4 14.0 14.8 15.6 14.3 13.9 15.3 17.4 19.2 19.8 20.2 22.8 19.6 19.0 19.2 15.4 12.8 13.6 14.3 13.8 12.8 11.5 11.0 10.1 10.2 10.6 10.7 11.0 11.0 10.7 9.9 9.4 9.0 8.1 7.3 7.2 7.8 7.4 7.3 7.5 8.0 8.7 9.7 10.1 10.2 11.3 12.0 12.2 12.9 13.4 13.5 14.0 12.4 11.5 11.3 11.2 12.0 12.2 11.9 11.5
14.3 13.2 12.2 12.9 12.1 12.0 13.8 14.1 13.3 13.8 16.5 20.7 20.6 20.6 19.9 23.3 19.5 15.5 13.4 12.0 11.2 12.0 12.2 12.0 12.0 11.7 11.3 11.4 11.9 11.8 11.4 10.9 11.2 11.0 10.7 10.0 9.6 8.8 8.1 8.2 8.1 7.7 7.6 7.3 7.6 8.2 8.5 9.2 10.2 11.1 12.3 12.4 12.4 11.9 10.9 10.0 9.7 9.9 10.2 11.0 11.6 12.2 11.9